Location: Barton Flats Campground
(34.1722°N, 116.8753°W)
Time: 20:03:43
(UTC+00:00)

H-2A R/B - Pass Details

Date: 08 August 2020
Orbit: 578 x 654 km, 98.5° (Epoch: 01 October)

Event Time Altitude Azimuth Distance (km) Brightness Sun altitude
Exits shadow 12:03:53 - 194° (SSW) 2,133 4.4 -12.2°
Reaches altitude 10° 12:04:29 10° 197° (SSW) 1,908 4.1 -12.1°
Maximum altitude 12:08:12 32° 261° (W) 1,006 2.6 -11.4°
Drops below altitude 10° 12:11:54 10° 326° (NW) 1,899 4.5 -10.7°
Sets 12:14:13 0° 336° (NNW) 2,799 5.5 -10.3°
